"TOA5","AWS1","CR1000","7964","CR1000.Std.14","CPU:AWS1_114.CR1","64363","TBL110"
"TIMESTAMP","RECORD","Wind_spd_WVc(1)","Wind_spd_WVc(2)","Air_Temp_Avg","Humidity_Avg","SW_upper_Wm2_Avg","Rain_Tot","Press_Avg","Issui_Tot","Depth_cm","SR50A_Raw","Quality","Ground_Temp_Avg(1)","Ground_Temp_Avg(2)","SW_lower_Wm2_Avg","Albedo_Avg","SWC_per(1)","SWC_per(2)","Period(1)","Period(2)"
"TS","RN","","","","","","","","","","","","","","","","","","",""
"","","WVc","WVc","Avg","Avg","Avg","Tot","Avg","Tot","Smp","Smp","Smp","Avg","Avg","Avg","Avg","Smp","Smp","Smp","Smp"
"2018-05-03 00:00:00",338893,0.621,73.08,13.3,100,0,0,857.0228,0.5,-2.638,3.131,194,10.88,9.89,0.2463279,0,50.33,57.04,33.38,34.99
"2018-05-03 00:10:00",338894,0.604,73.91,13.32,100,0,0,856.886,0,-2.741,3.132,198,10.87,9.89,0.2197999,0,50.44,56.98,33.41,34.98
"2018-05-03 00:20:00",338895,0.815,141.5,13.37,100,0,0.5,856.6901,0,-3.122,3.135,215,10.87,9.89,0.2311702,0,50.5,56.98,33.42,34.98
"2018-05-03 00:30:00",338896,0.847,151.9,13.55,100,0,0,856.5279,0,-3.344,3.136,221,10.87,9.89,0.3410704,0,50.55,56.98,33.43,34.98
"2018-05-03 00:40:00",338897,1.105,131.9,13.62,100,0.003930334,0,856.3279,0,-3.547,3.138,224,10.85,9.88,0.3789601,0.032,50.61,57.04,33.45,34.99
"2018-05-03 00:50:00",338898,0.658,160.6,13.59,100,0,0,856.0877,0,-3.295,3.136,231,10.86,9.87,0.2197961,0,50.66,57.04,33.46,34.99
"2018-05-03 01:00:00",338899,0.712,143,13.58,100,0,0,855.9445,0,-3.034,3.133,196,10.85,9.88,0.2311653,0,50.66,57.04,33.46,34.99
"2018-05-03 01:10:00",338900,0.866,146.5,13.68,100,0,0,855.7465,0,-2.57,3.128,198,10.84,9.87,0.3941151,0,50.72,57.04,33.47,34.99
"2018-05-03 01:20:00",338901,0.763,172,13.86,100,0,0,855.5001,0,-2.847,3.13,196,10.85,9.86,0.4547463,0,50.77,57.1,33.49,35.01
"2018-05-03 01:30:00",338902,0.832,188.9,13.93,100,0,0,855.2684,0,-3.281,3.134,202,10.83,9.85,0.4850619,0,50.83,57.1,33.5,35.01
"2018-05-03 01:40:00",338903,0.684,2.077,13.76,100,0,0.5,855.2368,0.5,-2.774,3.13,195,10.83,9.86,0.1818981,0,50.83,57.16,33.5,35.02
"2018-05-03 01:50:00",338904,0.542,127.2,13.67,100,0,0,855.0051,0.5,-2.624,3.129,212,10.83,9.85,0.16674,0,50.83,57.16,33.5,35.02
"2018-05-03 02:00:00",338905,0.747,157.5,13.71,100,0,1,854.7734,0.5,-4.306,3.144,180,10.84,9.86,0.3221113,0,50.88,57.16,33.52,35.02
"2018-05-03 02:10:00",338906,0.854,138,13.97,100,0,1,854.7776,1,-2.226,3.123,198,10.83,9.85,0.4699035,0,50.99,57.22,33.54,35.03
"2018-05-03 02:20:00",338907,0.571,116.6,13.96,100,0,1.5,854.7292,1.5,-3.052,3.132,192,10.84,9.85,0.2842158,0,51.44,57.22,33.65,35.03
"2018-05-03 02:30:00",338908,0.821,132,13.86,100,0,1,854.548,1,-2.871,3.13,190,10.85,9.85,0.1894772,0,53,57.45,34.03,35.09
"2018-05-03 02:40:00",338909,0.384,3.779,13.77,100,0,1.5,854.3416,1.5,-2.16,3.124,193,10.85,9.85,0.01894772,0,54.29,57.86,34.34,35.18
"2018-05-03 02:50:00",338910,0.318,40.65,13.78,100,0,0.5,854.2637,1,-2.388,3.126,178,10.92,9.85,0,0,54.58,58.26,34.41,35.28
"2018-05-03 03:00:00",338911,0.55,25.28,13.76,100,0,0.5,854.3122,0,-2.798,3.13,196,10.94,9.85,0.003789545,0,54.58,58.67,34.41,35.37
"2018-05-03 03:10:00",338912,0.37,39.92,13.75,100,0,0.5,854.3564,0.5,-1.852,3.121,197,10.94,9.85,0,0,54.63,59.44,34.42,35.55
"2018-05-03 03:20:00",338913,0.459,72.65,13.68,100,0,0,854.4196,0.5,-1.804,3.121,194,10.93,9.85,0,0,54.58,59.91,34.41,35.66
"2018-05-03 03:30:00",338914,0.663,111.8,13.7,100,0,0.5,854.3016,0,-2.364,3.126,196,10.91,9.83,0,0,54.58,60.21,34.41,35.73
"2018-05-03 03:40:00",338915,0.753,122.4,13.76,100,0,0,854.2637,0.5,-2.365,3.126,197,10.96,9.85,0.007579089,0,54.52,60.27,34.4,35.74
"2018-05-03 03:50:00",338916,0.639,107.3,13.79,100,0,0.5,854.2637,0,-2.666,3.128,192,11,9.87,0,0,54.46,60.33,34.38,35.75
"2018-05-03 04:00:00",338917,0.596,126.2,13.92,100,0.003930287,0,854.2574,0.5,-2.895,3.13,197,11.02,9.89,0.09852815,0.016,54.41,60.44,34.37,35.78
"2018-05-03 04:10:00",338918,0.508,45.81,13.93,100,0,0.5,854.2637,0,-2.667,3.128,188,11.02,9.9,0.01515818,0,54.46,60.5,34.38,35.79
"2018-05-03 04:20:00",338919,0.501,69.41,13.98,100,0,0,854.2616,0.5,-2.462,3.126,197,11.02,9.9,0,0,54.41,60.56,34.37,35.81
"2018-05-03 04:30:00",338920,0.208,12.81,13.82,100,0,1,854.2784,0.5,-2.111,3.124,197,11.02,9.9,0,0,54.46,60.68,34.38,35.83
"2018-05-03 04:40:00",338921,0,0,13.73,100,0.02358172,1,854.289,1.5,-2.798,3.13,195,11.02,9.9,0,0,54.8,60.98,34.46,35.9
"2018-05-03 04:50:00",338922,0,0,13.74,100,0.07860574,0.5,854.2637,0,-3.081,3.133,196,11.02,9.9,0.01894772,0.08,54.86,61.4,34.48,36
"2018-05-03 05:00:00",338923,0.226,334.5,13.65,100,0.0589543,0.5,854.2574,0.5,-2.418,3.127,203,11.02,9.9,0.003789545,0.016,54.92,61.58,34.49,36.04
"2018-05-03 05:10:00",338924,0.067,247.7,13.59,100,0.3222835,2,854.2637,2,-2.008,3.123,197,11,9.9,0,0,55.09,61.76,34.53,36.08
"2018-05-03 05:20:00",338925,0.326,184.3,13.52,100,0.507007,2.5,854.2764,3,-2.321,3.127,198,11.02,9.9,0,0,55.37,62.48,34.6,36.24
"2018-05-03 05:30:00",338926,0.162,245.6,13.22,100,0.5463098,1.5,854.4701,1.5,-2.229,3.128,196,11.08,9.93,0,0,55.37,64.42,34.6,36.68
"2018-05-03 05:40:00",338927,0.507,208.3,13.08,100,1.536742,1.5,854.6871,1,-2.796,3.134,190,11.09,9.95,0.08336998,0.034,55.49,64.48,34.63,36.69
"2018-05-03 05:50:00",338928,0.18,98.4,13.08,100,5.828615,0.5,854.8492,1,-3,3.136,182,11.18,9.97,0.5608526,0.091,55.49,64.48,34.63,36.69
"2018-05-03 06:00:00",338929,0.257,69.34,13.02,100,7.656199,0,854.7692,0,-2.133,3.128,196,11.2,9.95,0.7124344,0.091,55.43,64.42,34.61,36.68
"2018-05-03 06:10:00",338930,0.258,90.6,12.98,100,6.71293,1,854.7607,1,-2.338,3.13,197,11.2,9.99,0.7124344,0.108,55.49,64.42,34.63,36.68
"2018-05-03 06:20:00",338931,0.467,78.34,13.06,100,5.915082,0,854.7523,0,-2.386,3.13,200,11.19,9.98,0.6859075,0.117,55.43,64.42,34.61,36.68
"2018-05-03 06:30:00",338932,0.62,84.4,12.99,100,8.151415,0,854.8345,0,-2.181,3.128,200,11.19,9.98,0.9170697,0.114,55.37,64.42,34.6,36.68
"2018-05-03 06:40:00",338933,0.57,69.81,13.02,100,11.15022,0,854.826,0.5,-2.031,3.127,200,11.2,9.98,1.152022,0.103,55.26,64.42,34.57,36.68
"2018-05-03 06:50:00",338934,0.342,85.3,12.96,100,17.19107,0.5,854.9461,0,-1.724,3.124,227,11.2,9.98,1.883404,0.11,55.2,64.42,34.56,36.68
"2018-05-03 07:00:00",338935,0.595,83.9,13.03,100,65.05018,0,855.0051,0,-1.874,3.125,213,11.25,9.98,6.836339,0.105,55.2,64.42,34.56,36.68
"2018-05-03 07:10:00",338936,0.496,93.9,13.12,100,48.07134,0,855.0198,0,-1.567,3.122,207,11.27,9.98,4.90367,0.102,55.09,64.42,34.53,36.68
"2018-05-03 07:20:00",338937,0.807,89.4,12.99,100,28.83652,0,854.9945,0,-2.337,3.13,206,11.27,9.99,3.065742,0.106,55.09,64.42,34.53,36.68
"2018-05-03 07:30:00",338938,0.345,39.92,12.98,100,27.11505,0,855.0262,0,-2.337,3.13,206,11.28,10.03,2.800473,0.102,54.97,64.36,34.51,36.66
"2018-05-03 07:40:00",338939,0.539,48.71,12.98,100,61.88237,0,855.0367,0,-2.308,3.129,207,11.28,10.06,6.57486,0.107,54.97,64.36,34.51,36.66
"2018-05-03 07:50:00",338940,0.357,90.3,13.19,100,53.55802,0,855.0177,0,-2.38,3.129,206,11.28,10.05,5.263677,0.098,54.92,64.36,34.49,36.66
"2018-05-03 08:00:00",338941,0.481,140.1,13.12,100,41.59423,0.5,855.0219,0.5,-1.976,3.126,211,11.28,10.03,4.058602,0.097,54.86,64.3,34.48,36.65
"2018-05-03 08:10:00",338942,0.6,78.72,13.1,100,36.87788,0,855.0746,0,-1.874,3.125,220,11.28,10.03,3.66449,0.099,54.8,63.99,34.46,36.58
"2018-05-03 08:20:00",338943,0.735,81.6,13.02,100,41.80646,0,855.3379,0,-2.747,3.134,198,11.28,10.03,4.088919,0.097,54.8,63.63,34.46,36.5
"2018-05-03 08:30:00",338944,0.736,43.57,12.93,100,73.799,0,855.519,0,-3.19,3.14,202,11.28,10.03,7.385822,0.1,54.8,63.45,34.46,36.46
"2018-05-03 08:40:00",338945,0.679,61.26,12.46,100,55.43277,0,855.5233,0,-3.735,3.147,197,11.28,10.03,5.460733,0.097,54.75,63.2,34.45,36.4
"2018-05-03 08:50:00",338946,0.569,43.33,12.28,100,101.8573,0,855.5274,0,-4.042,3.15,185,11.28,10.03,10.95936,0.107,54.69,63.08,34.44,36.38
"2018-05-03 09:00:00",338947,0.575,84.6,12.29,100,90.68351,0,855.6243,0,-4.149,3.152,177,11.28,10.02,9.621654,0.106,54.69,62.96,34.44,36.35
"2018-05-03 09:10:00",338948,0.696,80.2,12.22,100,104.1683,0,855.7654,0,-2.844,3.139,206,11.28,10.02,11.28147,0.108,54.63,62.84,34.42,36.32
"2018-05-03 09:20:00",338949,0.611,49.54,12.33,100,147.543,0,855.7802,0,-2.508,3.135,201,11.28,10.01,16.29125,0.11,54.63,62.78,34.42,36.31
"2018-05-03 09:30:00",338950,0.373,32.87,12.44,100,177.818,0,855.7781,0,-2.546,3.133,212,11.27,10.06,19.42142,0.106,54.63,62.42,34.42,36.23
"2018-05-03 09:40:00",338951,0.4,27.25,12.51,100,104.4277,0,855.7802,0,-2.251,3.132,208,11.25,10.07,10.88736,0.097,54.58,62.3,34.41,36.2
"2018-05-03 09:50:00",338952,0.206,253.3,12.27,100,9.570249,0.5,855.776,0.5,-2.518,3.137,205,11.24,10.07,0.4850617,0.042,54.52,62.24,34.4,36.19
"2018-05-03 10:00:00",338953,0.265,103.1,11.94,100,31.74886,0,855.7865,0.5,-2.264,3.135,257,11.26,10.07,3.050583,0.095,54.52,62.3,34.4,36.2
"2018-05-03 10:10:00",338954,0.205,57.47,11.71,100,36.88574,0,855.7823,0,-2.069,3.135,276,11.26,10.07,3.637963,0.095,54.52,62.24,34.4,36.19
"2018-05-03 10:20:00",338955,0.214,354.2,11.53,100,79.36035,0,855.8812,0,-2.381,3.139,238,11.25,10.07,8.23468,0.1,54.52,62.18,34.4,36.17
"2018-05-03 10:30:00",338956,0.189,275.6,11.24,100,67.49875,0,855.8792,0,-2.569,3.143,228,11.25,10.07,7.120554,0.104,54.52,62.18,34.4,36.17
"2018-05-03 10:40:00",338957,0.339,291.6,10.89,100,142.202,0,855.7802,0,-2.856,3.147,226,11.25,10.07,16.00328,0.112,54.46,62.12,34.38,36.16
"2018-05-03 10:50:00",338958,0.517,332.5,11.02,100,145.395,0,855.7844,0,-3.304,3.149,210,11.28,10.07,15.82534,0.107,54.41,62.12,34.37,36.16
"2018-05-03 11:00:00",338959,0.711,52.43,11.37,100,220.4082,0,855.835,0,-3.067,3.145,226,11.3,10.08,25.2575,0.114,54.35,62.06,34.36,36.15
"2018-05-03 11:10:00",338960,0.626,66.67,11.54,100,226.2083,0,855.8539,0,-3.549,3.149,198,11.29,10.11,25.11338,0.11,54.35,62.06,34.36,36.15
"2018-05-03 11:20:00",338961,0.503,54.1,11.57,100,177.8181,0,855.8623,0,-3.553,3.15,195,11.3,10.13,19.42521,0.107,54.29,62,34.34,36.13
"2018-05-03 11:30:00",338962,0.454,49.64,11.61,100,166.4319,0,855.7549,0,-4.573,3.16,194,11.34,10.13,18.33003,0.109,54.29,62,34.34,36.13
"2018-05-03 11:40:00",338963,0.263,26.2,11.15,100,50.02076,0,855.8202,0,-3.871,3.156,192,11.36,10.15,4.74072,0.091,54.29,61.94,34.34,36.12
"2018-05-03 11:50:00",338964,0.114,74.34,11.09,100,77.21048,0,855.8055,0,-3.964,3.155,195,11.36,10.15,8.799322,0.111,54.24,61.94,34.33,36.12
"2018-05-03 12:00:00",338965,0.274,46.36,11.27,100,143.3808,0,855.776,0,-3.74,3.154,191,11.37,10.15,16.83695,0.117,54.24,61.88,34.33,36.11
"2018-05-03 12:10:00",338966,0.605,20.05,11,100,140.0007,0,855.7802,0,-3.516,3.153,184,11.37,10.13,16.92032,0.12,54.18,61.88,34.32,36.11
"2018-05-03 12:20:00",338967,0.386,65.52,11,99.1,168.625,0,855.6875,0,-3.764,3.154,184,11.37,10.12,20.66439,0.122,54.18,61.88,34.32,36.11
"2018-05-03 12:30:00",338968,0.542,38.46,11.12,97.6,200.2127,0,855.6664,0,-3.565,3.153,175,11.36,10.11,25.227,0.126,54.18,61.58,34.32,36.04
"2018-05-03 12:40:00",338969,0.266,42.68,11.16,90.9,174.6266,0,855.5401,0,-3.813,3.154,184,11.4,10.12,21.71409,0.124,54.18,61.52,34.32,36.02
"2018-05-03 12:50:00",338970,0.49,63.4,11,89.5,157.8364,0,855.7802,0,-3.866,3.155,185,11.37,10.11,20.20206,0.127,54.12,61.52,34.3,36.02
"2018-05-03 13:00:00",338971,0.609,37.35,11.14,84.2,225.8146,0,855.7739,0,-3.658,3.152,184,11.37,10.11,29.67592,0.131,54.07,61.46,34.29,36.01
"2018-05-03 13:10:00",338972,0.728,101.7,11.1,80.4,228.1807,0.5,855.7907,0,-2.948,3.146,203,11.38,10.1,30.78247,0.135,54.01,61.46,34.27,36.01
"2018-05-03 13:20:00",338973,0.371,56.17,11.55,81.4,446.2487,0,855.5969,0,-3.388,3.146,197,11.44,10.1,61.27693,0.137,54.01,61.46,34.27,36.01
"2018-05-03 13:30:00",338974,0.722,126.8,11.82,75.97,483.8144,0,855.4895,0,-2.478,3.139,197,11.4,10.15,67.9579,0.14,54.07,61.4,34.29,36
"2018-05-03 13:40:00",338975,1.065,127.9,11.75,75.08,637.5161,0,855.3063,0,-2.912,3.138,210,11.38,10.15,93.50322,0.146,53.95,61.4,34.26,36
"2018-05-03 13:50:00",338976,0.546,114.6,12.36,72.77,426.6051,0,855.4411,0,-3.851,3.151,185,11.46,10.08,61.41336,0.144,54.01,61.34,34.27,35.98
"2018-05-03 14:00:00",338977,0.928,144,11.98,72.76,477.8914,0,855.2684,0,-4.001,3.152,188,11.48,10.08,70.40594,0.147,54.01,61.34,34.27,35.98
"2018-05-03 14:10:00",338978,0.604,123.6,11.92,73.16,368.7985,0,855.142,0,-2.888,3.138,194,11.48,10.07,55.01282,0.15,53.9,61.28,34.25,35.97
"2018-05-03 14:20:00",338979,0.506,132.1,12.57,71.84,379.4496,0,855.2073,0,-2.712,3.137,184,11.46,10.1,54.63007,0.144,53.9,61.22,34.25,35.96
"2018-05-03 14:30:00",338980,0.425,87.7,12.21,76.23,143.2511,0,855.2537,0,-2.435,3.135,189,11.49,10.08,21.14187,0.148,53.9,61.22,34.25,35.96
"2018-05-03 14:40:00",338981,0.31,69.03,12.23,76.03,253.4839,0,855.2368,0,-2.616,3.137,194,11.58,10.07,36.21667,0.143,53.84,61.16,34.23,35.94
"2018-05-03 14:50:00",338982,0.718,253.5,11.26,76.61,87.92052,0,855.2494,0,-2.687,3.148,184,11.59,10.12,11.47474,0.124,53.84,61.16,34.23,35.94
"2018-05-03 15:00:00",338983,0.548,240.8,9.83,83.4,55.03188,0,855.3273,0,-2.628,3.152,189,11.6,10.16,6.756758,0.122,53.39,61.1,34.13,35.93
"2018-05-03 15:10:00",338984,0.36,240.5,9.4,84.6,115.126,0,855.5253,0,-3.798,3.164,176,11.59,10.16,16.21925,0.14,52.83,61.1,33.99,35.93
"2018-05-03 15:20:00",338985,0.186,284.5,9.22,83.2,112.3983,0,855.5316,0,-3.549,3.163,184,11.63,10.15,15.71524,0.14,52.72,61.1,33.96,35.93
"2018-05-03 15:30:00",338986,0.225,275.5,9.34,84.3,94.9518,0,855.5801,0,-3.651,3.164,192,11.71,10.15,13.17246,0.138,52.66,61.1,33.95,35.93
"2018-05-03 15:40:00",338987,0.241,268.5,8.98,84.8,78.51927,0,855.7802,0,-3.552,3.164,192,11.72,10.16,10.95178,0.139,52.66,61.04,33.95,35.92
"2018-05-03 15:50:00",338988,0.251,289.3,9.05,81.8,172.8069,0,855.7802,0,-2.374,3.15,192,11.72,10.16,25.89775,0.15,52.6,61.04,33.94,35.92
"2018-05-03 16:00:00",338989,0.189,203.9,9.53,79.73,201.9735,0,855.7802,0,-2.725,3.152,190,11.74,10.16,29.66834,0.146,52.6,61.04,33.94,35.92
"2018-05-03 16:10:00",338990,0.169,270.2,9.54,81,139.4859,0,855.8265,0,-2.371,3.149,191,11.72,10.16,20.43701,0.146,52.55,60.98,33.92,35.9
"2018-05-03 16:20:00",338991,0.285,88,9.97,73.06,233.7578,0,855.7781,0,-2.005,3.143,196,11.72,10.2,34.96613,0.15,52.55,60.98,33.92,35.9
"2018-05-03 16:30:00",338992,0.223,38.88,10.03,67.83,200.3464,0,855.757,0,-1.696,3.139,194,11.78,10.2,29.62666,0.148,52.49,60.92,33.91,35.89
"2018-05-03 16:40:00",338993,0.359,268,9.87,68.41,157.0071,0,855.7528,0,-1.96,3.144,203,11.8,10.2,22.16125,0.141,52.49,60.92,33.91,35.89
"2018-05-03 16:50:00",338994,0.229,187.9,9.65,67.45,105.3828,0,855.7422,0,-1.762,3.143,209,11.8,10.2,14.37374,0.136,52.49,60.92,33.91,35.89
"2018-05-03 17:00:00",338995,0.33,107.6,9.51,64.46,85.86497,0,855.7254,0,-1.919,3.146,204,11.8,10.21,11.6718,0.135,52.49,60.86,33.91,35.88
"2018-05-03 17:10:00",338996,0.33,193.6,9.16,69.01,70.41895,0,855.6643,0,-2.581,3.153,186,11.8,10.23,9.401859,0.133,52.44,60.86,33.89,35.88
"2018-05-03 17:20:00",338997,0.199,170,9.17,71.26,49.2072,0,855.797,0,-3.223,3.161,189,11.8,10.24,6.411909,0.128,52.44,60.8,33.89,35.86
"2018-05-03 17:30:00",338998,0.097,183.6,8.79,72.59,28.36095,0,855.9276,0,-3.456,3.165,193,11.79,10.24,3.133953,0.11,52.44,60.74,33.89,35.85
"2018-05-03 17:40:00",338999,0.038,123.4,8.44,73.31,24.36778,0,856.0287,0,-3.538,3.168,195,11.77,10.24,2.474572,0.099,52.44,60.74,33.89,35.85
"2018-05-03 17:50:00",339000,0.094,213.7,8.13,76.41,28.8012,0,856.033,0,-2.53,3.16,235,11.77,10.24,3.679654,0.126,52.44,60.74,33.89,35.85
"2018-05-03 18:00:00",339001,0.035,224.7,7.778,76.33,15.3639,0,856.0371,0,-1.301,3.149,289,11.81,10.25,1.417328,0.092,52.38,60.74,33.88,35.85
"2018-05-03 18:10:00",339002,0.021,226,7.456,79.44,11.81988,0,856.2225,0,-1.881,3.157,224,11.83,10.28,1.246922,0.105,52.38,60.68,33.88,35.83
"2018-05-03 18:20:00",339003,0.146,212.2,7.128,81.3,9.289257,0,856.2858,0,-1.391,3.154,282,11.79,10.32,1.201542,0.128,52.38,60.68,33.88,35.83
"2018-05-03 18:30:00",339004,0.011,177.8,6.752,80.1,3.72694,0,856.2858,0,-0.087,3.143,371,11.82,10.36,0.5420561,0.159,52.38,60.68,33.88,35.83
"2018-05-03 18:40:00",339005,0.003,287,6.369,80.1,0.2083691,0,856.2858,0,-0.804,3.152,324,11.81,10.37,0.2046997,0.139,52.32,60.62,33.87,35.82
"2018-05-03 18:50:00",339006,0.066,219.6,6.032,81,0,0,856.4584,0,-1.823,3.165,225,11.81,10.37,0,0,52.32,60.62,33.87,35.82
"2018-05-03 19:00:00",339007,0.039,217.5,5.584,80.3,0,0,856.5384,0,-2.029,3.169,203,11.78,10.38,0,0,52.32,60.56,33.87,35.81
"2018-05-03 19:10:00",339008,0.031,181.4,5.231,80.4,0,0,856.5408,0,-1.351,3.164,253,11.75,10.38,0,0,52.27,60.56,33.85,35.81
"2018-05-03 19:20:00",339009,0.008,156.4,4.88,80.1,0,0,856.6326,0,-1.757,3.17,221,11.74,10.38,0,0,52.32,60.5,33.87,35.79
"2018-05-03 19:30:00",339010,0.119,193.5,4.691,82.1,0,0,856.8195,0,-0.674,3.16,319,11.65,10.38,0.3335936,0,52.27,60.5,33.85,35.79
"2018-05-03 19:40:00",339011,0.342,188.2,4.61,82.7,0.04324789,0,856.943,0,-1.277,3.165,268,11.68,10.38,0.625488,0.611,52.27,60.5,33.85,35.79
"2018-05-03 19:50:00",339012,0.042,169.6,4.855,78.18,0.08256416,0,856.9009,0,-1.429,3.166,244,11.59,10.38,0.9098007,1.061,52.27,60.5,33.85,35.79
"2018-05-03 20:00:00",339013,0.008,171.8,4.896,79.88,0,0,857.0018,0,-0.949,3.161,294,11.55,10.38,0.7467948,0,52.27,60.44,33.85,35.78
"2018-05-03 20:10:00",339014,0.008,140.5,4.978,81.2,0,0,857.1507,0,-0.267,3.154,333,11.56,10.38,0.879474,0,52.27,60.44,33.85,35.78
"2018-05-03 20:20:00",339015,0,0,5.037,80.4,0,0,857.3807,0,-1.705,3.168,206,11.49,10.38,0.7505856,0,52.21,60.38,33.84,35.77
"2018-05-03 20:30:00",339016,0.063,80.8,4.972,73.17,0,0,857.5093,0,-1.276,3.164,226,11.49,10.38,0.5762071,0,52.27,60.44,33.85,35.78
"2018-05-03 20:40:00",339017,0.005,348.1,4.942,71.51,0,0,857.6189,0,-1.578,3.167,199,11.41,10.38,0.4549004,0,52.21,60.44,33.84,35.78
"2018-05-03 20:50:00",339018,0.016,299.7,4.895,70.42,0,0,857.6378,0,-1.681,3.169,201,11.4,10.38,0.3525478,0,52.21,60.44,33.84,35.78
"2018-05-03 21:00:00",339019,0.026,50.08,4.626,73.16,0,0,857.6378,0,-1.406,3.168,224,11.39,10.38,0,0,52.21,60.44,33.84,35.78
"2018-05-03 21:10:00",339020,0.045,50,4.136,72.32,0,0,857.5662,0,-1.385,3.171,212,11.35,10.38,0,0,52.21,60.38,33.84,35.77
"2018-05-03 21:20:00",339021,0,0,3.765,73.22,0,0,857.4293,0,-1.714,3.177,199,11.31,10.38,0,0,52.21,60.38,33.84,35.77
"2018-05-03 21:30:00",339022,0.29,129,3.2,79.95,0,0,857.3408,0,-1.342,3.177,218,11.24,10.38,0,0,52.21,60.38,33.84,35.77
"2018-05-03 21:40:00",339023,0.853,143.3,3.178,79.27,0,0,857.0964,0,-1.496,3.176,213,11.27,10.39,0.3108643,0,52.1,60.38,33.81,35.77
"2018-05-03 21:50:00",339024,0.756,77.14,3.861,70.57,0,0,856.8878,0,-1.416,3.169,204,11.26,10.39,0.9022653,0,52.16,60.38,33.83,35.77
"2018-05-03 22:00:00",339025,1.225,43.99,4.306,68,0,0,856.8815,0,-1.005,3.166,208,11.2,10.41,0.6369213,0,52.16,60.38,33.83,35.77
"2018-05-03 22:10:00",339026,0.803,43.97,3.991,72.33,0,0,856.8793,0,-1.171,3.169,204,11.22,10.43,0.181993,0,52.16,60.33,33.83,35.75
"2018-05-03 22:20:00",339027,0.981,41.53,4.221,72.83,0,0,856.8056,0,-1.425,3.169,214,11.14,10.46,0.4739801,0,52.16,60.33,33.83,35.75
"2018-05-03 22:30:00",339028,0.472,162.7,3.341,80.2,0,0,856.6602,0,-1.313,3.177,203,11.17,10.47,0.1061745,0,52.16,60.33,33.83,35.75
"2018-05-03 22:40:00",339029,0.17,190.7,2.922,81.8,0,0,856.8688,0,-1.112,3.173,218,11.09,10.51,0.05688154,0,52.16,60.33,33.83,35.75
"2018-05-03 22:50:00",339030,0.024,189.1,3.268,79.63,0,0,856.8793,0,-1.187,3.172,218,11.08,10.54,0.4702224,0,52.16,60.27,33.83,35.74
"2018-05-03 23:00:00",339031,0.172,142.8,3.35,81.1,0,0,856.7744,0,-1.692,3.179,200,11,10.55,0.3223307,0,52.16,60.27,33.83,35.74
"2018-05-03 23:10:00",339032,0.118,136.4,2.846,85.6,0,0,856.6573,0,-1.165,3.175,216,10.99,10.53,0,0,52.16,60.27,33.83,35.74
"2018-05-03 23:20:00",339033,0.124,273.7,2.982,78.2,0,0,856.6426,0,-1.265,3.175,207,11.01,10.49,0.3147468,0,52.16,60.27,33.83,35.74
"2018-05-03 23:30:00",339034,0.438,140.1,3.151,75.17,0,0,856.6253,0,-1.617,3.178,214,10.91,10.47,0.4967691,0,52.1,60.27,33.81,35.74
"2018-05-03 23:40:00",339035,0.874,152.9,2.83,75.53,0,0,856.4576,0,-1.641,3.178,198,10.92,10.46,0.1858144,0,52.16,60.27,33.83,35.74
"2018-05-03 23:50:00",339036,1.018,145.9,3.36,64.99,0,0,856.4196,0,-0.962,3.17,196,10.82,10.46,0.3867973,0,52.16,60.21,33.83,35.73
